Weather History for CWZG - October, 2013

Change the Weather History Date:

Monday, October 21, 2013

  Actual Average Record
Temperature  
Mean Temperature 46 °F -  
Max Temperature 59 °F - - ()
Min Temperature 34 °F - - ()
Degree Days  
Heating Degree Days 18    
Moisture  
Dew Point 31 °F    
Average Humidity 62    
Maximum Humidity 85    
Minimum Humidity 33    
Precipitation  
Precipitation 0.00 in - - ()
Sea Level Pressure  
Sea Level Pressure 30.16 in    
Wind  
Wind Speed 5 mph ()    
Max Wind Speed 13 mph    
Max Gust Speed 22 mph    
T = Trace of Precipitation, MM = Missing Value Source: Averaged Metar Reports

Daily Weather History Graph

Daily Weather History Graph

Search for Another Location

Airport or City:

Trip Planner

Search our weather history database for the weather conditions in past years. The results will help you decide how hot, cold, wet, or windy it might be!

Date:

Astronomy

Oct. 21, 2013 Rise Set
Actual Time 8:16 AM MDT 6:36 PM MDT
Civil Twilight 7:42 AM MDT 7:09 PM MDT
Nautical Twilight 7:04 AM MDT 7:48 PM MDT
Astronomical Twilight 6:25 AM MDT 8:26 PM MDT
Moon 8:15 PM MDT (10/21) 11:11 AM MDT (10/21)
Length of Visible Light 11h 27m
Length of Day
10h 19m
Waning Gibbous, 92% of the Moon is Illuminated
Oct 21
Waning Gibbous
Oct 26
Last Quarter
Nov 3
New
Nov 9
First Quarter
Nov 17
Full

Hourly Weather History & Observations

Time (MDT) Temp. Windchill Dew Point Humidity Pressure Visibility Wind Dir Wind Speed Gust Speed Precip Events Conditions
12:00 AM 37.2 °F - 30.9 °F 78% 30.17 in - SSW 1.2 mph - N/A   Unknown
1:00 AM 38.1 °F 34.6 °F 31.1 °F 76% 30.14 in - SW 4.6 mph - N/A   Unknown
2:00 AM 36.1 °F 33.5 °F 30.2 °F 79% 30.15 in - WSW 3.5 mph - N/A   Unknown
3:00 AM 36.0 °F 31.1 °F 30.4 °F 80% 30.16 in - West 5.8 mph - N/A   Unknown
4:00 AM 36.0 °F 31.1 °F 31.1 °F 82% 30.15 in - WSW 5.8 mph - N/A   Unknown
5:00 AM 34.9 °F 29.9 °F 30.0 °F 82% 30.18 in - WSW 5.8 mph - N/A   Unknown
6:00 AM 35.2 °F 30.3 °F 30.4 °F 82% 30.19 in - SW 5.8 mph - N/A   Unknown
7:00 AM 34.9 °F 29.9 °F 30.2 °F 83% 30.20 in - SW 5.8 mph - N/A   Unknown
8:00 AM 35.1 °F 27.4 °F 30.9 °F 85% 30.20 in - SW 10.4 mph - N/A   Unknown
9:00 AM 35.1 °F 27.9 °F 30.7 °F 84% 30.22 in - SSW 9.2 mph - N/A   Unknown
10:00 AM 38.5 °F 32.1 °F 31.1 °F 75% 30.22 in - SW 9.2 mph 18.4 mph N/A   Unknown
11:00 AM 43.9 °F 39.9 °F 32.9 °F 65% 30.20 in - SW 6.9 mph - N/A   Unknown
12:00 PM 49.6 °F - 33.3 °F 53% 30.17 in - WSW 8.1 mph - N/A   Unknown
1:00 PM 53.8 °F - 33.8 °F 47% 30.14 in - WSW 6.9 mph - N/A   Unknown
2:00 PM 58.1 °F - 33.6 °F 40% 30.11 in - SW 6.9 mph - N/A   Unknown
3:00 PM 59.0 °F - 31.6 °F 36% 30.09 in - SW 11.5 mph 21.9 mph N/A   Unknown
4:00 PM 59.7 °F - 30.7 °F 33% 30.09 in - WSW 12.7 mph 21.9 mph N/A   Unknown
5:00 PM 59.4 °F - 29.8 °F 33% 30.09 in - WSW 8.1 mph - N/A   Unknown
6:00 PM 56.1 °F - 31.1 °F 39% 30.12 in - West 3.5 mph - N/A   Unknown
7:00 PM 53.2 °F - 30.7 °F 42% 30.14 in - West 5.8 mph - N/A   Unknown
8:00 PM 51.3 °F - 30.6 °F 45% 30.16 in - WSW 6.9 mph - N/A   Unknown
9:00 PM 46.9 °F - 31.6 °F 55% 30.18 in - SSW 6.9 mph - N/A   Unknown
10:00 PM 45.0 °F 40.6 °F 31.6 °F 60% 30.18 in - SW 8.1 mph - N/A   Unknown
11:00 PM 42.1 °F 37.7 °F 31.1 °F 65% 30.18 in - WSW 6.9 mph - N/A   Unknown